STARLINK-34060, 63815

Orbit data source: Space-Track

STARLINK-34060, 63815 is a payload satellite owned by SpaceX/Seattle (US) in LEO that was launched on Sun, 04 May 2025 UTC via an FALCON 9 launch vehicle from the Air Force Eastern Test Range (AFETR). Payload-class satellites include a variety of spacecraft equipped with specific instruments for various scientific and technological missions. These include communications satellites like Starlink; space stations such as the ISS; scientific satellites like the Hubble; Earth observation satellites from companies like Planet Labs, Umbra, and HawkEye 360; GPS; miniature CubeSats for education and research; and military/defense satellites.

Loading next visibility...
Identifier
63815, 2025-092M
Orbit
LEO
Country
Flag of USUS
Related business
Manufacturer
SpaceX/Seattle
Mission
Operational Commercial Communications
Bus & Motor
STARLINK V2MO, Unknown motor
Mass
575 kg wet, ~530 kg dry
Launch date (UTC)
2025-05-04 (1 year ago)
Launch vehicle
FALCON 9
Launch site
Air Force Eastern Test Range (AFETR)
Object type
Payload
Rocket body
Debris
Shape & HBR
Box + 1 Pan, 17.7 m
Radar Cross Section
41.120 m², Large (>1 m²)

Expand to show TLE details & history
Last TLE update: 20 hours ago

TLE from 20 hours ago
0 STARLINK-34060
1 63815U 25092M   26267.04487870  .00011385  00000-0  42247-3 0  9992
2 63815  42.9919 132.0735 0002189  22.5209 337.5738 15.27589544 78898
Epoch: 2026-09-24T01:04Z
TLE epoch observation values (Epoch: 2026-09-24T01:04:37.519Z)
Latitude
-0.00005°
Longitude
113.02983°
Altitude
481.407 km
Speed
7.627 km/s
True Right ascension
08h 48m 17s
True Declination
0° 00' 00"
Sunlit
Object was in daylight at epoch
Visualization orbit readout
Latitude
Unknown
Longitude
Unknown
Altitude
Unknown
Speed
Unknown
Apparent Right ascension
Unknown
Apparent Declination
Unknown
Sunlit
N/A
Visualization observer readout
Local Sidereal Time
14:17:08
Azimuth
Unknown
Elevation
Unknown
Doppler factor
Unknown
Orbital elements
Apogee altitude
486.469 km
Perigee altitude
483.465 km
Semi-major axis
6,863.104 km
Eccentricity
0.00022
Inclination
42.9919°
RAAN
132.0735°
Arg. of periapsis
22.5209°
True anomaly
337.56423°
Mean anomaly
337.5738°
Eccentric anomaly
337.56901°
Mean motion
3.81735 °/min
Orbital period
94.31 mins
BSTAR
0.00042247
Loading maneuver chart data...
Computing Atmospheric mass density...
Loading historical data...
Loading historical data...
Loading historical data...
Loading historical data...
Loading historical data...
Loading historical data...
Loading historical data...

Documentation

Showing up to 5 results
|